Regional Weather Roundup
Issued by NWS State College, PA

Home | Current Version | Previous Version | Text Only | Print | Product List | Glossary Off
Versions: 1 2 3 4 5 6 7 8 9 10 11 12 13 14 15 16 17 18 19 20 21 22 23 24 25 26 27 28 29 30 31 32 33 34 35 36 37 38 39 40 41 42 43 44 45 46 47 48 49 50

000
ASUS41 KCTP 181910
RWRCTP

REGIONAL WEATHER ROUNDUP
NATIONAL WEATHER SERVICE STATE COLLEGE PA
300 PM EDT THU SEP 18 2014

Note: "fair" indicates few or no clouds below 12,000 feet with no
significant weather and/or obstructions to visibility.

* = STATION THAT DOES NOT REPORT PRECIPITATION /E.G. RAIN...SNOW...ETC/
    THUNDER OR FOG.

PAZ002>004-007>009-013>016-020>023-029>032-182000-
WESTERN PENNSYLVANIA

CITY           SKY/WX    TMP DP  RH WIND       PRES   REMARKS
ERIE           PTSUNNY   64  52  64 N10       30.12S
MEADVILLE      MOSUNNY   67  48  50 N7        30.10F
FRANKLIN*      PTSUNNY   64  46  52 NW3       30.11F
NEW CASTLE     NOT AVBL
BEAVER COUNTY  MOSUNNY   64  46  52 N7        30.10F
BUTLER*        CLOUDY    64  45  48 N3        30.11S
PITTSBURGH INT PTSUNNY   67  45  45 N8        30.09F
PITTSBURGH     MOSUNNY   67  40  37 CALM      30.08F
INDIANA*       MOSUNNY   66  45  45 VRB5G12   30.13S
LATROBE        MOSUNNY   66  43  42 N12       30.10S
WASHINGTON CO* MOSUNNY   66  45  45 N7        30.10F
$$

PAZ004>006-010>012-017>019-024>028-033>037-041-042-045-046-049>053-182000-
CENTRAL PENNSYLVANIA

CITY           SKY/WX    TMP DP  RH WIND       PRES   REMARKS
BRADFORD       PTSUNNY   62  43  49 N8        30.09S
DUBOIS         MOSUNNY   63  44  50 VRB5      30.08S
CLEARFIELD     MOSUNNY   66  43  43 VRB5      30.08S
JOHNSTOWN      PTSUNNY   64  44  48 NW13      30.09S
ALTOONA        PTSUNNY   66  46  48 N10       30.07R
STATE COLLEGE  PTSUNNY   68  46  45 NW7       30.06F
WILLIAMSPORT   PTSUNNY   71  46  40 NE3       30.02S
SELINSGROVE    MOSUNNY   74  46  36 VRB6      30.03F
FT INDIANTOWN  SUNNY     74  43  32 W8        30.02F
CAPITAL CITY   MOSUNNY   74  45  35 N8        30.02S
HARRISBURG     MOSUNNY   76  44  32 NW8G16    30.01
YORK           MOSUNNY   74  45  35 VRB7      30.01F
$$

PAZ038>040-043-044-047-048-054-055-060>062-067>071-182000-
EASTERN PENNSYLVANIA

CITY           SKY/WX    TMP DP  RH WIND       PRES   REMARKS
SCRANTON       MOSUNNY   72  42  34 VRB7      30.02S
MOUNT POCONO   MOSUNNY   67  42  40 NW8       30.03S
ALLENTOWN      PTSUNNY   74  46  36 NW5       29.99F
QUAKERTOWN*    MOCLDY    73  50  43 N3        30.01S
READING        PTSUNNY   76  46  34 W7        29.99F
LANCASTER      MOSUNNY   75  45  34 N9        30.00F
COATESVILLE    PTCLDY    68  57  68 S5        30.03S
POTTSTOWN      CLOUDY    71  50  47 VRB3      30.01S
BLUE BELL      CLOUDY    73  52  46 SW3       29.99S
DOYLESTOWN     PTSUNNY   72  49  44 NW7       29.99S
WILLOW GROVE   NOT AVBL
NORTH PHILA    PTSUNNY   75  47  36 VRB5      30.00F
PHILADELPHIA   CLOUDY    71  54  54 SW10      30.01S
$$



USA.gov is the U.S. government's official web portal to all federal, state and local government web resources and services.